• In Moldova, Republic
  • List of Countries
  • For 7 days
  • Water Temperature
  • Satellite Maps
  • Weather Map
  • Weather Widgets
  • user-avatar
    Login

    Hourly Weather Prutz

    Today, 24 January, Wednesday

    Time Temperature Precipitation Wind Pressure Humidity
    00:00 -5°C° 0 mm 2 mps 637 mmHg 59%
    01:00 -5°C° 0 mm 2 mps 637 mmHg 57%
    02:00 -5°C° 0 mm 2 mps 637 mmHg 57%
    03:00 -5°C° 0 mm 2 mps 637 mmHg 56%
    04:00 -5°C° 0 mm 2 mps 637 mmHg 55%
    05:00 -5°C° 0 mm 2 mps 637 mmHg 54%
    06:00 -5°C° 0 mm 2 mps 637 mmHg 53%
    07:00 -4°C° 0 mm 2 mps 637 mmHg 52%
    08:00 -3°C° 0 mm 2 mps 637 mmHg 56%
    09:00 -1°C° 0 mm 2 mps 638 mmHg 60%
    10:00 +1°C° 0 mm 2 mps 638 mmHg 64%
    11:00 +2°C° 0 mm 2 mps 638 mmHg 72%
    12:00 +3°C° 0 mm 2 mps 638 mmHg 79%
    13:00 +4°C° 0 mm 2 mps 638 mmHg 87%
    14:00 +3°C° 0 mm 2 mps 637 mmHg 85%
    15:00 +3°C° 0 mm 2 mps 637 mmHg 83%
    16:00 +3°C° 0 mm 2 mps 637 mmHg 82%
    17:00 +1°C° 0 mm 2 mps 636 mmHg 78%
    18:00 -1°C° 0 mm 3 mps 636 mmHg 75%
    19:00 -4°C° 0 mm 3 mps 636 mmHg 71%
    20:00 -4°C° 0 mm 3 mps 636 mmHg 70%
    21:00 -4°C° 0 mm 3 mps 635 mmHg 68%
    22:00 -4°C° 0 mm 3 mps 635 mmHg 67%
    23:00 -4°C° 0 mm 3 mps 635 mmHg 67%

    Tomorrow, 25 January, Thursday

    Time Temperature Precipitation Wind Pressure Humidity
    00:00 -4°C° 0 mm 3 mps 635 mmHg 66%
    01:00 -5°C° 0 mm 3 mps 635 mmHg 66%
    02:00 -5°C° 0 mm 3 mps 635 mmHg 67%
    03:00 -4°C° 0 mm 3 mps 635 mmHg 68%
    04:00 -4°C° 0 mm 3 mps 634 mmHg 69%
    05:00 -4°C° 0 mm 3 mps 634 mmHg 70%
    06:00 -4°C° 0 mm 3 mps 634 mmHg 71%
    07:00 -4°C° 0 mm 3 mps 634 mmHg 72%
    08:00 -2°C° 0 mm 3 mps 634 mmHg 75%
    09:00 -1°C° 0 mm 3 mps 634 mmHg 78%
    10:00 0°C° 0 mm 3 mps 634 mmHg 80%
    11:00 0°C° 0 mm 3 mps 633 mmHg 84%
    12:00 +1°C° 0 mm 3 mps 633 mmHg 87%
    13:00 +1°C° 0 mm 3 mps 633 mmHg 90%
    14:00 +1°C° 0 mm 3 mps 632 mmHg 90%
    15:00 +1°C° 0 mm 3 mps 632 mmHg 90%
    16:00 +1°C° 0 mm 3 mps 632 mmHg 90%
    17:00 0°C° 0 mm 3 mps 631 mmHg 89%
    18:00 -1°C° 0 mm 3 mps 631 mmHg 89%
    19:00 -1°C° 0 mm 3 mps 631 mmHg 88%
    20:00 -2°C° 0 mm 3 mps 631 mmHg 88%
    21:00 -2°C° 0 mm 3 mps 630 mmHg 87%
    22:00 -2°C° 0 mm 3 mps 630 mmHg 87%
    23:00 -2°C° 0.1 mm 3 mps 630 mmHg 87%

    Day after tomorrow, 26 January, Friday

    Time Temperature Precipitation Wind Pressure Humidity
    00:00 -2°C° 0.1 mm 3 mps 630 mmHg 87%
    01:00 -2°C° 0.1 mm 3 mps 629 mmHg 88%
    02:00 -2°C° 0.1 mm 3 mps 629 mmHg 88%
    03:00 -2°C° 0.1 mm 3 mps 629 mmHg 88%
    04:00 -2°C° 0.1 mm 3 mps 628 mmHg 88%
    05:00 -2°C° 0.1 mm 3 mps 628 mmHg 88%
    06:00 -2°C° 0.1 mm 3 mps 628 mmHg 88%
    07:00 -2°C° 0.1 mm 3 mps 628 mmHg 88%
    08:00 -2°C° 0.1 mm 3 mps 629 mmHg 89%
    09:00 -1°C° 0.1 mm 2 mps 629 mmHg 90%
    10:00 -1°C° 0.1 mm 2 mps 630 mmHg 91%
    11:00 +1°C° 0.3 mm 2 mps 630 mmHg 93%
    12:00 +1°C° 0.3 mm 2 mps 630 mmHg 95%
    13:00 +1°C° 0.3 mm 2 mps 630 mmHg 97%
    14:00 +1°C° 0.9 mm 2 mps 630 mmHg 96%
    15:00 -1°C° 0.9 mm 2 mps 630 mmHg 96%
    16:00 -1°C° 0.9 mm 2 mps 630 mmHg 96%
    17:00 0°C° 1.6 mm 1 mps 630 mmHg 97%
    18:00 0°C° 1.6 mm 1 mps 630 mmHg 97%
    19:00 -1°C° 1.6 mm 1 mps 630 mmHg 97%
    20:00 -1°C° 1.8 mm 1 mps 630 mmHg 97%
    21:00 -1°C° 1.8 mm 1 mps 631 mmHg 97%
    22:00 -1°C° 1.8 mm 1 mps 631 mmHg 97%
    23:00 -1°C° 1.7 mm 1 mps 631 mmHg 97%

    27 January, Saturday

    Time Temperature Precipitation Wind Pressure Humidity
    00:00 -3°C° 1.7 mm 2 mps 631 mmHg 97%
    01:00 -4°C° 1.7 mm 2 mps 631 mmHg 97%
    02:00 -4°C° 1.6 mm 2 mps 631 mmHg 97%
    03:00 -4°C° 1.6 mm 2 mps 631 mmHg 97%
    04:00 -4°C° 1.6 mm 2 mps 631 mmHg 97%
    05:00 -4°C° 1.3 mm 2 mps 632 mmHg 97%
    06:00 -4°C° 1.3 mm 2 mps 632 mmHg 97%
    07:00 -4°C° 1.3 mm 2 mps 632 mmHg 97%
    08:00 -2°C° 1.1 mm 1 mps 633 mmHg 96%
    09:00 -2°C° 1.1 mm 1 mps 633 mmHg 96%
    10:00 -1°C° 1.1 mm 1 mps 634 mmHg 95%
    11:00 -1°C° 0.6 mm 1 mps 634 mmHg 94%
    12:00 0°C° 0.6 mm 1 mps 635 mmHg 93%
    13:00 0°C° 0.6 mm 1 mps 635 mmHg 92%
    14:00 +1°C° 0.2 mm 1 mps 636 mmHg 93%
    15:00 +1°C° 0.2 mm 1 mps 636 mmHg 93%
    16:00 +1°C° 0.2 mm 1 mps 636 mmHg 93%
    17:00 0°C° 0.1 mm 1 mps 637 mmHg 92%
    18:00 -1°C° 0.1 mm 1 mps 637 mmHg 92%
    19:00 -2°C° 0.1 mm 1 mps 637 mmHg 91%
    20:00 -3°C° 0 mm 1 mps 637 mmHg 90%
    21:00 -3°C° 0 mm 1 mps 638 mmHg 89%
    22:00 -3°C° 0 mm 1 mps 638 mmHg 87%
    23:00 -5°C° 0 mm 2 mps 638 mmHg 85%

    28 January, Sunday

    Time Temperature Precipitation Wind Pressure Humidity
    00:00 -5°C° 0 mm 2 mps 639 mmHg 83%
    01:00 -6°C° 0 mm 2 mps 639 mmHg 82%
    02:00 -6°C° 0 mm 2 mps 639 mmHg 81%
    03:00 -6°C° 0 mm 2 mps 639 mmHg 80%
    04:00 -6°C° 0 mm 2 mps 639 mmHg 79%
    05:00 -4°C° 0 mm 1 mps 639 mmHg 78%
    06:00 -4°C° 0 mm 1 mps 640 mmHg 77%
    07:00 -4°C° 0 mm 1 mps 640 mmHg 76%
    08:00 -2°C° 0 mm 1 mps 641 mmHg 77%
    09:00 0°C° 0 mm 1 mps 642 mmHg 77%
    10:00 +1°C° 0 mm 1 mps 643 mmHg 78%
    11:00 +2°C° 0 mm 1 mps 643 mmHg 84%
    12:00 +2°C° 0 mm 0 mps 643 mmHg 89%
    13:00 +2°C° 0 mm 0 mps 643 mmHg 95%
    14:00 +2°C° 0 mm 0 mps 643 mmHg 94%
    15:00 +2°C° 0 mm 0 mps 643 mmHg 92%
    16:00 +2°C° 0 mm 0 mps 642 mmHg 91%
    17:00 +1°C° 0 mm 1 mps 642 mmHg 88%
    18:00 0°C° 0 mm 1 mps 642 mmHg 84%
    19:00 -2°C° 0 mm 1 mps 642 mmHg 80%
    20:00 -2°C° 0 mm 1 mps 642 mmHg 77%
    21:00 -2°C° 0 mm 1 mps 642 mmHg 73%
    22:00 -2°C° 0 mm 1 mps 642 mmHg 70%
    23:00 -2°C° 0 mm 1 mps 642 mmHg 67%

    29 January, Monday

    Time Temperature Precipitation Wind Pressure Humidity
    00:00 -5°C° 0 mm 2 mps 642 mmHg 65%
    01:00 -5°C° 0 mm 2 mps 642 mmHg 63%
    02:00 -5°C° 0 mm 2 mps 641 mmHg 62%
    03:00 -3°C° 0 mm 1 mps 641 mmHg 60%
    04:00 -3°C° 0 mm 1 mps 641 mmHg 59%
    05:00 -3°C° 0 mm 1 mps 641 mmHg 58%
    06:00 -3°C° 0 mm 1 mps 641 mmHg 57%
    07:00 -3°C° 0 mm 1 mps 641 mmHg 56%
    08:00 -2°C° 0 mm 1 mps 641 mmHg 61%
    09:00 0°C° 0 mm 1 mps 642 mmHg 65%
    10:00 +2°C° 0 mm 1 mps 643 mmHg 70%
    11:00 +3°C° 0 mm 1 mps 642 mmHg 77%
    12:00 +2°C° 0 mm 0 mps 642 mmHg 84%
    13:00 +3°C° 0 mm 0 mps 642 mmHg 91%
    14:00 +2°C° 0 mm 0 mps 642 mmHg 89%
    15:00 +2°C° 0 mm 0 mps 641 mmHg 87%
    16:00 +1°C° 0 mm 0 mps 641 mmHg 86%
    17:00 +1°C° 0 mm 1 mps 640 mmHg 81%
    18:00 -1°C° 0 mm 1 mps 640 mmHg 77%
    19:00 -3°C° 0 mm 1 mps 639 mmHg 73%
    20:00 -3°C° 0 mm 1 mps 639 mmHg 69%
    21:00 -3°C° 0 mm 1 mps 639 mmHg 66%
    22:00 -3°C° 0 mm 1 mps 639 mmHg 62%
    23:00 -3°C° 0 mm 1 mps 639 mmHg 60%
    Show more